Location: Bourg-d�Oueil
(42.8588°N, 0.4991°E)
Time: 13:58:37
(UTC+00:00)

Cosmos 1850 Rocket - Pass Details

Date: 16 June 2021
Orbit: 755 x 785 km, 74.0° (Epoch: 31 July)

Event Time Altitude Azimuth Distance (km) Brightness Sun altitude
Rises 21:04:35 0° 342° (NNW) 3,273 8.7 -12.6°
Reaches altitude 10° 21:07:01 10° 345° (NNW) 2,337 7.6 -12.9°
Maximum altitude 21:12:18 68° 68° (ENE) 835 4.1 -13.5°
Enters shadow 21:15:53 20° 148° (SSE) 1,697 5.1 -13.9°
